CST,Max TemperatureF,Mean TemperatureF,Min TemperatureF,Max Dew PointF,MeanDew PointF,Min DewpointF,Max Humidity, Mean Humidity, Min Humidity, Max Sea Level PressureIn, Mean Sea Level PressureIn, Min Sea Level PressureIn, Max VisibilityMiles, Mean VisibilityMiles, Min VisibilityMiles, Max Wind SpeedMPH, Mean Wind SpeedMPH, Max Gust SpeedMPH,PrecipitationIn, CloudCover, Events, WindDirDegrees
2013-2-1,44,28,12,18,11,7,77,54,30,30.48,30.36,30.21,10,10,10,13,7,,0.00,0,,121
2013-2-2,52,40,28,30,25,18,69,57,38,30.28,30.23,30.19,10,10,10,15,6,18,0.00,1,,231
2013-2-3,53,44,36,28,24,20,70,50,27,30.30,30.17,30.00,10,10,10,12,8,,0.00,0,,225
2013-2-4,57,50,42,45,37,24,82,64,42,29.97,29.89,29.84,10,10,8,22,11,29,0.16,4,Rain-Thunderstorm,208
2013-2-5,63,48,32,48,33,30,92,65,30,30.08,30.01,29.93,10,10,8,10,4,,0.00,0,,122
2013-2-6,62,50,39,41,35,32,77,59,38,30.12,30.04,29.96,10,10,10,15,11,20,0.00,1,,119
2013-2-7,55,50,43,52,48,38,100,90,80,30.10,29.94,29.88,10,7,1,17,9,22,0.23,8,Rain,296
2013-2-8,51,42,33,36,31,29,86,72,43,30.31,30.24,30.12,10,9,6,14,9,20,0.00,3,,50
2013-2-9,48,40,33,43,34,26,93,82,42,30.24,30.04,29.85,10,9,5,18,11,25,0.14,5,Rain,113
2013-2-10,59,50,39,52,43,25,100,76,32,30.05,29.74,29.66,10,9,2,26,15,31,0.16,5,Rain-Thunderstorm,195
2013-2-11,52,41,30,27,24,21,79,54,31,30.21,30.15,30.06,10,10,10,9,4,,0.00,0,,292
2013-2-12,44,38,33,34,30,25,93,76,51,30.14,30.01,29.93,10,8,1,14,6,,0.12,6,Rain-Snow,46
2013-2-13,48,40,32,37,32,30,97,82,48,30.04,29.98,29.94,10,6,0,15,7,20,0.01,6,Fog-Rain-Snow,261
2013-2-14,54,44,35,33,30,27,79,59,43,30.17,30.05,29.97,10,10,10,10,8,,0.00,2,,267
2013-2-15,42,34,27,28,20,11,82,58,32,30.35,30.30,30.18,10,10,10,14,9,17,0.00,2,,312
2013-2-16,36,30,24,24,20,15,88,68,44,30.36,30.27,30.15,10,10,4,15,8,21,0.00,7,Snow,272
2013-2-17,63,48,32,32,23,14,54,39,27,30.14,30.00,29.83,10,10,10,18,10,26,0.00,1,,163
2013-2-18,59,47,34,52,41,23,94,71,40,30.14,29.77,29.61,10,10,9,30,22,39,0.11,5,Rain-Thunderstorm,230
2013-2-19,43,34,24,20,18,13,75,53,35,30.33,30.27,30.16,10,10,6,16,7,28,0.00,0,,317
2013-2-20,34,30,26,29,22,13,93,72,48,30.33,30.21,30.05,10,8,0,17,9,23,0.06,7,Fog-Rain-Snow,85
2013-2-21,35,32,28,33,29,23,96,88,78,30.06,29.80,29.69,10,6,2,25,15,37,0.32,8,Rain-Snow-Thunderstorm,100
2013-2-22,36,28,19,32,23,17,96,79,50,30.14,30.02,29.86,10,10,9,18,12,26,0.00,4,,270
2013-2-23,43,31,19,27,21,17,92,69,43,30.12,30.05,29.98,10,9,5,9,3,,0.00,0,,5
2013-2-24,59,44,28,32,30,27,92,63,33,30.01,29.93,29.85,10,10,9,14,9,24,0.00,0,,114
2013-2-25,42,40,35,38,33,27,93,78,60,29.89,29.61,29.44,10,9,5,25,14,36,0.36,7,Rain-Thunderstorm,58
2013-2-26,35,34,32,34,31,30,96,92,87,29.88,29.53,29.37,10,5,1,21,10,25,0.05,8,Rain-Snow,309
2013-2-27,37,34,32,34,29,25,93,81,70,30.09,29.99,29.85,10,7,2,20,12,29,0.00,7,Rain-Snow,280
2013-2-28,36,32,27,27,26,24,92,78,64,30.21,30.16,30.09,10,9,6,14,11,20,0.00,6,,307